Regional Weather Roundup
Issued by NWS Wakefield, VA

Home | Current Version | Previous Version | Graphics & Text | Print | Product List | Glossary On
Versions: 1 2 3 4 5 6 7 8 9 10 11 12 13 14 15 16 17 18 19 20 21 22 23 24 25 26 27 28 29 30 31 32 33 34 35 36 37 38 39 40 41 42 43 44 45 46 47 48 49 50
000
ASUS41 KAKQ 260515
RWRAKQ

REGIONAL WEATHER ROUNDUP
NATIONAL WEATHER SERVICE WAKEFIELD VA
100 AM EDT WED APR 26 2017

Note: "fair" indicates few or no clouds below 12,000 feet with no
significant weather and/or obstructions to visibility. * = Denotes
station may not report precipitation (e.g., rain,snow,etc.),
thunder or fog.

VAZ042-051-052>054-056-260600-
NORTHERN VIRGINIA

CITY           SKY/WX    TMP DP  RH WIND       PRES   REMARKS
WASH NATIONAL  DRIZZLE   59  58  96 N8        29.73F FOG
DULLES         CLOUDY    57  55  93 N8        29.74S
FORT BELVOIR   CLOUDY    59  57  94 CALM      29.73S
QUANTICO       LGT RAIN  59  58  96 N6        29.73F FOG
FREDERICKSBRG* CLOUDY    59  59 100 N7        29.72F
STAFFORD*      CLOUDY    57  57 100 N6        29.76F
WARRENTON      CLOUDY    58  55  88 N5        29.73F
CULPEPER*      CLOUDY    58  57  98 N6        29.75S
MANASSAS*        N/A     58  56  93 N7        29.74F
LEESBURG*      CLOUDY    57  57 100 N7        29.76F FOG
WINCHESTER     CLOUDY    54  54 100 N3        29.77S FOG
FRONT ROYAL*   CLOUDY    54  54 100 CALM      29.76F
LURAY*         CLOUDY    54  54 100 CALM      29.78S FOG
$$

VAZ048-049-060>072-079>083-260600-
CENTRAL AND SOUTH CENTRAL VIRGINIA

CITY           SKY/WX    TMP DP  RH WIND       PRES   REMARKS
RICHMOND       CLOUDY    59  59 100 NW12      29.71S FOG
CHESTERFIELD*  CLOUDY   N/A N/A N/A N7        29.73R
PETERSBURG*    CLOUDY    60  57  91 NW8       29.72S
HANOVER        CLOUDY    58  56  93 VRB6      29.73S FOG
TAPPAHANNOCK*  DRIZZLE   59  59 100 NW6       29.70S
QUINTON*       CLOUDY    59  59 100 NW7       29.70S FOG
CHARLOTTSVILLE MOCLDY    56  54  93 W3        29.74F
GORDONSVILLE*  CLOUDY    57  56  94 N5        29.73F
ORANGE*        CLOUDY    55  54  94 CALM      29.74F
LOUISA*        CLOUDY    61  61 100 N5        29.72F
BUMPASS*       CLOUDY    57  57 100 NW7       29.73S
FARMVILLE*     CLOUDY    59  59 100 CALM      29.73F
CREWE*         CLOUDY    58  58 100 N3        29.74S
FORT PICKETT*  CLOUDY   N/A N/A N/A NW5       29.73S
CHASE CITY*    CLOUDY    57  56  94 CALM      29.75S
CLARKSVILLE*   CLOUDY    57  57 100 CALM      29.76R
SOUTH HILL*    CLOUDY    59  58  97 NW6       29.79S
LAWRENCEVILLE* CLOUDY    60  58  93 NW3       29.72F
EMPORIA*       CLOUDY    59  59 100 W5        29.74R
$$

VAZ088>098-260600-
SOUTHEAST VIRGINIA

CITY           SKY/WX    TMP DP  RH WIND       PRES   REMARKS
NORFOLK        RAIN      64  61  90 CALM      29.66S
VIRGINIA BEACH LGT RAIN  62  60  93 SW6       29.65F
NORFOLK NAVAL  RAIN      64  61  90 NW12      29.68S FOG
WEST POINT*    CLOUDY    60  59  97 NW6       29.70R
SALUDA*        CLOUDY    60  60 100 NW5       29.67S
NEWPORT NEWS   RAIN      61  60  97 NW7       29.68R FOG
LANGLEY AFB    LGT RAIN  62  62 100 NW7       29.67R
FORT EUSTIS    HVY RAIN  62  60  94 NW9       29.66R FOG
WILLIAMSBURG*  CLOUDY    63  63 100 CALM      29.69S
HR EXEC AP*    CLOUDY    64  59  82 CALM      29.66S
FRANKLIN*      CLOUDY    62  61  96 NW3       29.70S
US460-WAKEFLD  CLOUDY    62  61  96 VRB3      29.70R
$$

VAZ020-022-025-037-045-260600-
WEST CENTRAL AND SOUTHWEST VIRGINIA

CITY           SKY/WX    TMP DP  RH WIND       PRES   REMARKS
STAUNTON*      CLOUDY    54  52  95 CALM      29.80F
WAYNESBORO*    CLOUDY    53  53 100 NW9       29.78F
HOT SPRINGS VA CLOUDY    50  46  87 NW3       29.81S
LYNCHBURG      CLEAR     50  49  96 CALM      29.78S FOG
DANVILLE       CLOUDY    57  57 100 CALM      29.77S
SOUTH BOSTON*  CLOUDY    58  57  95 CALM      29.76S
MARTINSVILLE   CLOUDY    51  50  98 CALM      29.80S
ROANOKE        CLOUDY    57  52  83 N5        29.79F
BLACKSBURG     CLOUDY    54  53  96 CALM      29.82F
DUBLIN*        CLOUDY    57  54  89 SW6       29.81F
MARION*        CLOUDY    57  56  95 CALM      29.84S FOG
HILLSVILLE*    CLOUDY    55  55 100 CALM      29.80F FOG
RICHLANDS*     FAIR      58  32  37 CALM      29.81S
WISE*            N/A     54  54 100 CALM      29.82S
ABINGDON*      CLEAR     56  56  98 CALM      29.81S FOG
$$

MDZ021>025-VAZ099-100-260600-
SOUTHERN MARYLAND AND THE DELMARVA PENINSULA

CITY           SKY/WX    TMP DP  RH WIND       PRES   REMARKS
PATUXENT RIVER CLOUDY    57  57 100 N13       29.68S FOG
BAY BRIDGE APT CLOUDY    57  55  94 N6        29.70F FOG
LEONARDTOWN    CLOUDY    55  55 100 N7        29.70S
DOVER          LGT RAIN  57  57 100 N13       29.68S
GEORGETOWN     CLOUDY    59  58  96 N9        29.66F FOG
EASTON         CLOUDY    58  56  94 NE8       29.72S
CAMBRIDGE      CLOUDY    59  57  94 N9        29.68R
SALISBURY      CLOUDY    59  59 100 N8        29.65F FOG
OCEAN CITY     FOG       58  57  97 CALM      29.65F VSB 3/4
WALLOPS ISLAND FOG       57  57 100 NE3       29.64S VSB 1
ACCOMACK*      FOG       59  55  85 N3        29.63S VSB 3/4
$$

NCZ012>017-030>032-260600-
NORTH CENTRAL AND EASTERN NORTH CAROLINA

CITY           SKY/WX    TMP DP  RH WIND       PRES   REMARKS
ROANOKE RAPIDS CLOUDY    61  61 100 NW8       29.73R
RALEIGH        MOCLDY    61  58  90 NW5       29.76R
ELIZABETH CITY LGT RAIN  63  63 100 W5        29.68S
AHOSKIE*       DRIZZLE   62  61  98 CALM      29.72R
EDENTON*       CLOUDY    65  61  87 CALM      29.70S
CURRITUCK*     LGT RAIN  64  64 100 CALM      29.69R
KILL DEVIL HLS CLOUDY    64  64 100 CALM      29.67S
MANTEO         CLOUDY    64  61  91 W3        29.69R
CAPE HATTERAS  PTCLDY    67  63  87 W7        29.69S FOG
TARBORO*       NOT AVBL
GOLDSBORO      CLOUDY    61  61 100 W6        29.72R
WASHINGTON     MOCLDY    62  60  95 W3        29.72R
GREENVILLE     CLOUDY    63  63 100 W6        29.75S
NEW BERN       CLEAR     61  60  97 SW6       29.73S
WILMINGTON     CLEAR     61  60  97 W8        29.75S
$$

VAZ048-260600-
ELSEWHERE

CITY           SKY/WX    TMP DP  RH WIND       PRES   REMARKS
HARRISBURG PA  CLOUDY    56  55  97 NE6       29.77F
BALTIMORE      CLOUDY    57  57 100 N7        29.72F
ANNAPOLIS      LGT RAIN  59 N/A N/A N8        29.70F
ANDREWS AFB    CLOUDY    57  57 100 N9        29.70F
PHILADELPHIA   LGT RAIN  56  54  93 NE22G28   29.72F
HENDERSON NC   CLOUDY    55  54  95 NW6       29.76R FOG
GREENSBORO     PTCLDY    56  56 100 CALM      29.77S
ROCKY MOUNT    CLOUDY    63  60  90 NW8       29.73R
$$

VAZ100-260600-
MARINE

STATION/POSITION TIME  TEMP    WIND        PRES    WAVE   SWELL
                       AIR SEA DIR/SP/G            HT/PER HT/PER
                 (UTC) (F)     (DEG/KT/KT) (MB)    (FT/S) (FT/S)
CAPE MAY NJ      0448   57 55   90/  4/  6 1004.3S
LEWES DE         0448   56 54   10/  6/  7 1004.4F
15NM E FENWICK I 0450   54 51   80/ 10/ 12 1004.6F   9/10   8/10
OCEAN-CITY-INLET 0448   56 53  150/  1/  2 1004.5F
WACHAPREAGUE VA  0442   57 61  280/  1/  2 1002.9F
THOMAS POINT MD  0500   57 56  360/ 13/ 14   N/A
GOOSES REEF MD   0500   57 53  350/ 16/ 17 1005.6    2/ 2
COVE POINT MD    0442   56     360/ 19/ 24 1005.8S
SOLOMONS ISLAND  0442   57 60  330/  9/ 14   N/A
BISHOPS HEAD MD  0448   59 59  360/  9/ 14 1004.7F
PINEY POINT MD   0448          360/ 12/ 13   N/A
POTOMAC MD       0500   58 60  360/ 12/ 16 1003.6    1/ 2
CAMBRIDGE MD     0442   58 61                N/A
LEWISETTA VA     0442   59 61  360/ 10/ 13 1004.6R
RAPPAHANNOCK LGT 0448          340/ 14/ 17 1004.3R
STINGRAY PT      0500   60 61  360/ 12/ 14 1002.7    2/ 3
YORK RVR RNG VA  0442   61     300/  8/ 10 1003.9R
YORKTOWN VA      0442   62 63  300/ 12/ 14 1004.5R
JAMESTOWN VA     0500   62 67  310/ 12/ 16   N/A     1/ 2
DOMINION TERM VA 0442   63     310/ 13/ 15 1004.7S
KIPTOPEKE VA     0448      60  300/ 14/ 16   N/A
CHES BAY BRIDGE  0442   62 61  280/ 11/ 12 1004.3F
CAPE HENRY VA    0442   62     250/  7/ 10   N/A
WILLOUBY STN VA  0442   63     300/ 12/ 13 1005.6R
S CRANEY ISL VA  0442   62     250/  5/  9 1004.5S
CAPE HENRY BUOY  0442      55                N/A     5/11   2/11
1ST LANDING BUOY 0500   62 60              1004.6    2/ 3
CAPE CHARLES BUO 0451      56                N/A     5/10   2/11
64NM E OF VA BCH 0450   56 54  210/  4/  6 1005.1S   9/10   8/10
DUCK PIER NC     0442   65 58  280/  6/  7 1004.4R
44100 DUCK FRF   0435      57                N/A     6/10   2/11
44056 DUCK FRF   0430      60                N/A     5/11   2/11
OREGON INLET NC  0448          230/  8/  9   N/A
HATTERAS NC      0442   67 68  250/ 10/ 14 1005.1F
DIAMOND SHLS NC  0450   71 77  270/ 17/ 23 1005.3R   9/10   7/10
CAPE LOOKOUT NC  0500   65     280/ 14/ 16 1006.2R
$$



USA.gov is the U.S. government's official web portal to all federal, state and local government web resources and services.